Location: Brusselsch Zeekanaal
(50.8667°N, 4.3667°E)
Time: 12:26:54
(UTC+00:00)

NOSS 2-1 (D) - Pass Details

Date: 08 November 2025
Orbit: 374 x 1680 km, 63.3° (Epoch: 10 December)

Event Time Altitude Azimuth Distance (km) Brightness Sun altitude
Exits shadow 04:18:43 43° 112° (ESE) 602 3.9 -23.4°
Drops below altitude 10° 04:21:21 10° 55° (NE) 1,422 6.2 -23.0°
Sets 04:23:18 0° 49° (NE) 2,251 7.2 -22.7°
